Regional Weather Roundup
Issued by NWS

Home | Current Version | Previous Version | Graphics & Text | Print | Product List | Glossary Off
Versions: 1 2 3 4 5 6 7 8 9 10 11 12 13 14 15 16 17 18 19 20 21 22 23 24 25 26 27 28 29 30 31 32 33 34 35 36 37 38 39 40 41 42 43 44 45 46 47 48 49 50

000
ASUS43 KLOT 271806
RWRIL

ILLINOIS REGIONAL WEATHER ROUNDUP
NATIONAL WEATHER SERVICE CHICAGO/ROMEOVILLE IL
1200 PM CST FRI FEB 27 2015

NOTE: "FAIR" INDICATES FEW OR NO CLOUDS BELOW 12,000 FEET WITH NO
SIGNIFICANT WEATHER AND/OR OBSTRUCTIONS TO VISIBILITY.

* THESE STATIONS ARE NOT UNDER NWS QUALITY CONTROL. THEY ALSO MAY NOT
  REPORT WEATHER SUCH AS PRECIPITATION OR FOG.

ILZ001-002-007-009-015-016-024-271900-
NORTHWEST ILLINOIS

CITY           SKY/WX    TMP DP  RH WIND       PRES   REMARKS
MOLINE         SUNNY     12  -4  48 NW5       30.66S WCI   4
6HR MIN TEMP: -13; 6HR MAX TEMP:  12;

STERLING*      SUNNY      7  -6  56 SW5       30.66S WCI  -2
SAVANNA*       SUNNY      7  -3  62 S5        30.65S WCI  -1
$$

ILZ003-004-008-010-011-017-018-271900-
NORTH CENTRAL ILLINOIS

CITY           SKY/WX    TMP DP  RH WIND       PRES   REMARKS
ROCKFORD       SUNNY     11  -6  46 W10       30.63S WCI  -3
6HR MIN TEMP: -15; 6HR MAX TEMP:  11;

FREEPORT*      SUNNY      7  -5  56 W5        30.64R WCI  -2
ROCHELLE*      SUNNY      4  -4  69 CALM      30.64S
DE KALB*       SUNNY      7  -5  59 W5        30.61S WCI  -2
PERU*          SUNNY     10  -1  59 NW6       30.66S WCI   1
$$

ILZ005-006-012>014-019>023-271900-
NORTHEAST ILLINOIS

CITY           SKY/WX    TMP DP  RH WIND       PRES   REMARKS
CHICAGO-OHARE  SUNNY     14  -4  44 NW9       30.60S WCI   2
6HR MIN TEMP:  -1; 6HR MAX TEMP:  14;

CHICAGO-MIDWAY SUNNY     16  -4  41 W10       30.62R WCI   4
6HR MIN TEMP:   0; 6HR MAX TEMP:  16;

AURORA         SUNNY      8  -3  61 W8        30.63S WCI  -4
6HR MIN TEMP: -15; 6HR MAX TEMP:   8;

LANSING*       SUNNY     15  -2  47 W12       30.62S WCI   2
JOLIET*        SUNNY     11  -4  51 W5        30.65S WCI   2
WAUKEGAN       SUNNY     14  -6  40 W6        30.59R WCI   5
6HR MIN TEMP:  -3; 6HR MAX TEMP:  15;

DUPAGE AIRPORT FAIR      12  -4  48 W14       30.61R WCI  -3
6HR MIN TEMP:  -6; 6HR MAX TEMP:  12; 6HR PCP: TRACE;

KANKAKEE*      SUNNY      9   2  73 W7        30.65S WCI  -3
WHEELING       SUNNY     15  -6  39 W13       30.62R WCI   1
6HR MIN TEMP:   0; 6HR MAX TEMP:  16;

MORRIS*        SUNNY      6  -1  71 W3        30.65R
ROMEOVILLE*    SUNNY     12  -2  52 W9        30.63S WCI   0
NORTHERLY ISL    N/A     16  -5  39 W9          N/A  WCI   5
$$

LMZ740>746-271900-
SOUTHERN LAKE MICHIGAN

STATION/POSITION SKY/WX   TEMP    WIND        PRES    VSBY  WAVE
                          AIR SEA DIR/SP/G                  HT/PER
                          (F)     (DEG/KT/KT) (MB)    (MI)  (FT/S)
WAUKEGAN HARBOR            13     280/  7/ 12   N/A
HARRISON CRIB              13     280/  9/ 11   N/A
BURNHAM HARBOR             18     300/  8/ 12   N/A
CALUMET HARBOR             15     290/  9/ 12 1035.3S
MICHIGAN CITY              12     230/ 11/ 12   N/A
$$

ILZ025>027-034>036-040-047-049-050-058-095>099-271900-
WEST-CENTRAL ILLINOIS

CITY           SKY/WX    TMP DP  RH WIND       PRES   REMARKS
QUINCY         SUNNY      7  -5  57 VRB5      30.66S WCI  -2
GALESBURG*     SUNNY      5  -3  69 NW3       30.65F
MACOMB*        SUNNY      4  -3  73 N3        30.70S
JACKSONVILLE*  SUNNY      9  -3  59 W5        30.67F WCI   0
PITTSFIELD*    SUNNY     10  -3  55 W3        30.68S
$$

ILZ028>032-037-038-041>044-048-051>054-059>061-271900-
CENTRAL ILLINOIS

CITY           SKY/WX    TMP DP  RH WIND       PRES   REMARKS
PONTIAC        SUNNY      7  -1  70 W6        30.66F WCI  -3
BLOOMINGTON    SUNNY     12   2  64 S6        30.63F WCI   3
DECATUR        SUNNY     12   1  61 CALM      30.65F
PEORIA         SUNNY     12  -4  48 W7        30.67S WCI   1
6HR MIN TEMP:  -7; 6HR MAX TEMP:  12;

LACON*         SUNNY      9  -4  56 NW5       30.67S WCI   1
LINCOLN*       SUNNY     14   3  61 CALM      30.69S
SPRINGFIELD    SUNNY      7  -2  66 SW7       30.68S WCI  -5
6HR MIN TEMP: -14; 6HR MAX TEMP:   7;

TAYLORVILLE    SUNNY      9   0  66 NW5       30.66F WCI   0
$$

ILZ033-039-045-046-055>057-062-063-271900-
EAST-CENTRAL ILLINOIS

CITY           SKY/WX    TMP DP  RH WIND       PRES   REMARKS
CHAMPAIGN      SUNNY      9   0  67 W6        30.64S WCI  -1
DANVILLE*      SUNNY     14   0  53 NW6       30.61S WCI   5
RANTOUL*       SUNNY     13   3  64 W5        30.64S WCI   5
MATTOON        SUNNY     11   0  61 NW6       30.64S WCI   1
PARIS*         SUNNY      9   1  70 NW3       30.66S
$$

ILZ079-100>102-271900-
SOUTHWEST ILLINOIS

CITY           SKY/WX    TMP DP  RH WIND       PRES   REMARKS
ALTON          SUNNY     14  -6  41 N6        30.67F WCI   5
BELLEVILLE     SUNNY     18  -1  44 N7        30.66F WCI   9
CAHOKIA*       SUNNY     17   1  49 NE7       30.67F WCI   8
SPARTA*        SUNNY     16   4  60 NW3       30.67F
$$

ILZ064>066-069>071-074>076-080>082-084>086-088>090-092>094-271900-
SOUTH-CENTRAL ILLINOIS

CITY           SKY/WX    TMP DP  RH WIND       PRES   REMARKS
CARBONDALE     SUNNY     19   7  59 N7        30.66F WCI  10
6HR MIN TEMP:   7; 6HR MAX TEMP:  19; 6HR PCP: TRACE;

CAIRO*         SUNNY     23  11  60 NE10      30.63F WCI  12
EFFINGHAM*     SUNNY     14  -2  48 W6        30.68R WCI   5
MARION         SUNNY     19   9  63 N12       30.66F WCI   7
MT. VERNON     SUNNY     18   5  57 NE7       30.67S WCI   8
CENTRALIA*     SUNNY     14   2  58 N5        30.66S WCI   7
SALEM*         SUNNY     15   0  53 CALM      30.67R
METROPOLIS*    SUNNY     22  11  62 N5        30.63F WCI  16
$$

ILZ067-068-072-073-078-083-087-091-271900-
SOUTHEAST ILLINOIS

CITY           SKY/WX    TMP DP  RH WIND       PRES   REMARKS
LAWRENCEVILLE  FLURRIES  17   3  54 SE5       30.67S WCI  10
FLORA*         SUNNY     12   0  60 CALM      30.68S
FAIRFIELD*     SUNNY     15   4  61 N9        30.66S WCI   3
HARRISBURG*    SUNNY     19  10  67 N5        30.68S WCI  12
ROBINSON*      SUNNY     17   1  51 N3        30.68S
CARMI*         SUNNY     20  11  69 N6        30.66S WCI  12
$$

ABBREVIATIONS USED IN REMARKS
   TC - TEMPERATURE IN CELSIUS
  WCI - WIND CHILL INDEX
   HX - HEAT INDEX
  VSB - VISIBILITY
$$




USA.gov is the U.S. government's official web portal to all federal, state and local government web resources and services.